Time,TemperatureF,DewpointF,PressureIn,WindDirection,WindDirectionDegrees,WindSpeedMPH,WindSpeedGustMPH,Humidity,HourlyPrecipIn,Conditions,Clouds,dailyrainin,SoftwareType,DateUTC
2013-01-07 00:00:00,30.1,28.3,29.96,SW,225,0.0,0.0,93,0.00,,,0.04,Wunderground v.1.15,2013-01-07 05:00:00,
2013-01-07 00:03:00,30.1,28.1,29.96,SW,225,0.0,0.0,92,0.00,,,0.04,Wunderground v.1.15,2013-01-07 05:03:00,
2013-01-07 00:08:00,30.2,28.2,29.96,SW,225,0.0,0.0,92,0.00,,,0.04,Wunderground v.1.15,2013-01-07 05:08:00,
2013-01-07 00:14:00,30.2,28.2,29.96,SW,225,0.0,0.0,92,0.00,,,0.04,Wunderground v.1.15,2013-01-07 05:14:00,
2013-01-07 00:20:00,30.3,28.3,29.96,SW,225,1.0,1.0,92,0.00,,,0.04,Wunderground v.1.15,2013-01-07 05:20:00,
2013-01-07 00:25:00,30.4,28.1,29.96,SW,225,0.0,0.0,91,0.00,,,0.00,Wunderground v.1.15,2013-01-07 05:25:00,
2013-01-07 00:30:00,30.5,28.2,29.96,SW,225,0.0,0.0,91,0.00,,,0.00,Wunderground v.1.15,2013-01-07 05:30:00,
2013-01-07 00:35:00,30.7,28.4,29.96,SW,225,0.0,0.0,91,0.00,,,0.00,Wunderground v.1.15,2013-01-07 05:35:00,
2013-01-07 00:41:00,30.9,28.6,29.97,SW,225,0.0,0.0,91,0.00,,,0.00,Wunderground v.1.15,2013-01-07 05:41:00,
2013-01-07 00:46:00,31.0,28.7,29.97,SW,225,0.0,0.0,91,0.00,,,0.00,Wunderground v.1.15,2013-01-07 05:46:00,
2013-01-07 00:52:00,31.3,28.7,29.97,SW,225,0.0,3.0,90,0.00,,,0.00,Wunderground v.1.15,2013-01-07 05:52:00,
2013-01-07 00:57:00,31.4,28.8,29.97,SW,225,0.0,0.0,90,0.00,,,0.00,Wunderground v.1.15,2013-01-07 05:57:00,
2013-01-07 01:03:00,31.4,28.8,29.98,SW,225,0.0,0.0,90,0.00,,,0.00,Wunderground v.1.15,2013-01-07 06:03:00,
2013-01-07 01:08:00,31.4,28.5,29.98,SW,225,0.0,0.0,89,0.00,,,0.00,Wunderground v.1.15,2013-01-07 06:08:00,
2013-01-07 01:13:00,31.3,28.4,29.98,SW,225,0.0,1.0,89,0.00,,,0.00,Wunderground v.1.15,2013-01-07 06:13:00,
2013-01-07 01:18:00,31.3,28.4,29.98,SW,223,0.0,1.0,89,0.00,,,0.00,Wunderground v.1.15,2013-01-07 06:18:00,
2013-01-07 01:24:00,31.4,28.5,29.98,West,261,0.0,2.0,89,0.00,,,0.00,Wunderground v.1.15,2013-01-07 06:24:00,
2013-01-07 01:30:00,31.4,28.5,29.99,SSW,202,0.0,0.0,89,0.00,,,0.00,Wunderground v.1.15,2013-01-07 06:30:00,
2013-01-07 01:36:00,31.5,28.4,29.99,NNW,331,2.0,2.0,88,0.00,,,0.00,Wunderground v.1.15,2013-01-07 06:36:00,
2013-01-07 01:41:00,31.5,28.1,29.99,NW,309,0.0,0.0,87,0.00,,,0.00,Wunderground v.1.15,2013-01-07 06:41:00,
2013-01-07 01:46:00,31.5,28.1,29.99,SW,222,0.0,2.0,87,0.00,,,0.00,Wunderground v.1.15,2013-01-07 06:46:00,
2013-01-07 01:52:00,31.5,28.1,29.99,SSW,194,0.0,1.0,87,0.00,,,0.00,Wunderground v.1.15,2013-01-07 06:52:00,
2013-01-07 01:58:00,31.4,28.0,30.00,NNW,331,0.0,1.0,87,0.00,,,0.00,Wunderground v.1.15,2013-01-07 06:58:00,
2013-01-07 02:03:00,31.4,28.0,30.00,SSW,200,0.0,2.0,87,0.00,,,0.00,Wunderground v.1.15,2013-01-07 07:03:00,
2013-01-07 02:08:00,31.3,27.6,30.00,WNW,298,0.0,4.0,86,0.00,,,0.00,Wunderground v.1.15,2013-01-07 07:08:00,
2013-01-07 02:13:00,31.3,27.6,30.00,SW,218,0.0,2.0,86,0.00,,,0.00,Wunderground v.1.15,2013-01-07 07:13:00,
2013-01-07 02:18:00,31.2,27.5,30.00,SW,218,0.0,2.0,86,0.00,,,0.00,Wunderground v.1.15,2013-01-07 07:18:00,
2013-01-07 02:23:00,31.0,27.3,30.00,SW,227,0.0,1.0,86,0.00,,,0.00,Wunderground v.1.15,2013-01-07 07:23:00,
2013-01-07 02:28:00,30.8,27.1,30.00,West,279,0.0,4.0,86,0.00,,,0.00,Wunderground v.1.15,2013-01-07 07:28:00,
2013-01-07 02:33:00,30.7,27.3,30.01,West,277,0.0,0.0,87,0.00,,,0.00,Wunderground v.1.15,2013-01-07 07:33:00,
2013-01-07 02:38:00,30.5,27.1,30.00,West,277,0.0,0.0,87,0.00,,,0.00,Wunderground v.1.15,2013-01-07 07:38:00,
2013-01-07 02:43:00,30.4,27.0,30.00,West,277,0.0,1.0,87,0.00,,,0.00,Wunderground v.1.15,2013-01-07 07:43:00,
2013-01-07 02:48:00,30.2,26.8,30.00,West,277,0.0,1.0,87,0.00,,,0.00,Wunderground v.1.15,2013-01-07 07:48:00,
2013-01-07 02:53:00,30.1,26.7,30.00,West,277,0.0,0.0,87,0.00,,,0.00,Wunderground v.1.15,2013-01-07 07:53:00,
2013-01-07 02:58:00,30.1,27.0,30.00,West,277,0.0,0.0,88,0.00,,,0.00,Wunderground v.1.15,2013-01-07 07:58:00,
2013-01-07 03:03:00,29.9,26.8,30.01,West,277,0.0,0.0,88,0.00,,,0.00,Wunderground v.1.15,2013-01-07 08:03:00,
2013-01-07 03:08:00,29.9,26.8,30.00,West,276,0.0,0.0,88,0.00,,,0.00,Wunderground v.1.15,2013-01-07 08:08:00,
2013-01-07 03:13:00,30.0,26.6,30.00,SW,215,1.0,1.0,87,0.00,,,0.00,Wunderground v.1.15,2013-01-07 08:13:00,
2013-01-07 03:18:00,30.1,26.7,30.00,SW,226,0.0,3.0,87,0.00,,,0.00,Wunderground v.1.15,2013-01-07 08:18:00,
2013-01-07 03:23:00,30.2,26.8,30.01,WNW,302,0.0,1.0,87,0.00,,,0.00,Wunderground v.1.15,2013-01-07 08:23:00,
2013-01-07 03:28:00,30.3,26.9,30.01,SW,215,0.0,3.0,87,0.00,,,0.00,Wunderground v.1.15,2013-01-07 08:28:00,
2013-01-07 03:34:00,30.4,26.7,30.00,WSW,251,3.0,5.0,86,0.00,,,0.00,Wunderground v.1.15,2013-01-07 08:34:00,
2013-01-07 03:39:00,30.5,26.8,30.00,WSW,251,1.0,5.0,86,0.00,,,0.00,Wunderground v.1.15,2013-01-07 08:39:00,
2013-01-07 03:44:00,30.6,26.9,30.01,WNW,292,1.0,2.0,86,0.00,,,0.00,Wunderground v.1.15,2013-01-07 08:44:00,
2013-01-07 03:49:00,30.7,27.0,30.00,WSW,250,1.0,3.0,86,0.00,,,0.00,Wunderground v.1.15,2013-01-07 08:49:00,
2013-01-07 03:53:00,30.7,27.0,30.01,NNE,23,0.0,1.0,86,0.00,,,0.00,Wunderground v.1.15,2013-01-07 08:53:00,
2013-01-07 03:58:00,30.8,26.8,30.01,WSW,246,0.0,1.0,85,0.00,,,0.00,Wunderground v.1.15,2013-01-07 08:58:00,
2013-01-07 04:03:00,30.9,26.9,30.01,WNW,283,2.0,4.0,85,0.00,,,0.00,Wunderground v.1.15,2013-01-07 09:03:00,
2013-01-07 04:08:00,30.8,26.8,30.01,WNW,294,0.0,4.0,85,0.00,,,0.00,Wunderground v.1.15,2013-01-07 09:08:00,
2013-01-07 04:14:00,30.8,26.8,30.01,NW,307,2.0,3.0,85,0.00,,,0.00,Wunderground v.1.15,2013-01-07 09:14:00,
2013-01-07 04:19:00,30.9,26.9,30.01,West,268,0.0,3.0,85,0.00,,,0.00,Wunderground v.1.15,2013-01-07 09:19:00,
2013-01-07 04:24:00,31.0,27.0,30.02,WNW,284,2.0,4.0,85,0.00,,,0.00,Wunderground v.1.15,2013-01-07 09:24:00,
2013-01-07 04:29:00,31.1,26.8,30.02,WNW,293,0.0,4.0,84,0.00,,,0.00,Wunderground v.1.15,2013-01-07 09:29:00,
2013-01-07 04:34:00,31.2,26.9,30.02,NW,306,2.0,5.0,84,0.00,,,0.00,Wunderground v.1.15,2013-01-07 09:34:00,
2013-01-07 04:39:00,31.3,27.0,30.02,WNW,290,1.0,5.0,84,0.00,,,0.00,Wunderground v.1.15,2013-01-07 09:39:00,
2013-01-07 04:44:00,31.4,27.1,30.02,SW,221,0.0,6.0,84,0.00,,,0.00,Wunderground v.1.15,2013-01-07 09:44:00,
2013-01-07 04:49:00,31.5,27.2,30.02,WNW,302,2.0,6.0,84,0.00,,,0.00,Wunderground v.1.15,2013-01-07 09:49:00,
2013-01-07 04:54:00,31.6,27.3,30.02,NW,309,0.0,4.0,84,0.00,,,0.00,Wunderground v.1.15,2013-01-07 09:54:00,
2013-01-07 04:59:00,31.6,27.0,30.03,WNW,292,2.0,4.0,83,0.00,,,0.00,Wunderground v.1.15,2013-01-07 09:59:00,
2013-01-07 05:04:00,31.5,26.9,30.03,WNW,289,2.0,4.0,83,0.00,,,0.00,Wunderground v.1.15,2013-01-07 10:04:00,
2013-01-07 05:09:00,31.6,27.0,30.03,NW,304,0.0,4.0,83,0.00,,,0.00,Wunderground v.1.15,2013-01-07 10:09:00,
2013-01-07 05:14:00,31.5,26.9,30.04,WNW,290,0.0,3.0,83,0.00,,,0.00,Wunderground v.1.15,2013-01-07 10:14:00,
2013-01-07 05:19:00,31.4,26.8,30.04,WNW,298,1.0,3.0,83,0.00,,,0.00,Wunderground v.1.15,2013-01-07 10:19:00,
2013-01-07 05:24:00,31.3,26.7,30.04,WNW,295,0.0,3.0,83,0.00,,,0.00,Wunderground v.1.15,2013-01-07 10:24:00,
2013-01-07 05:29:00,31.1,26.8,30.04,WNW,297,3.0,3.0,84,0.00,,,0.00,Wunderground v.1.15,2013-01-07 10:29:00,
2013-01-07 05:34:00,31.2,26.9,30.04,NW,305,0.0,5.0,84,0.00,,,0.00,Wunderground v.1.15,2013-01-07 10:34:00,
2013-01-07 05:39:00,31.3,27.0,30.05,WNW,294,3.0,5.0,84,0.00,,,0.00,Wunderground v.1.15,2013-01-07 10:39:00,
2013-01-07 05:44:00,31.4,27.1,30.05,West,267,2.0,4.0,84,0.00,,,0.00,Wunderground v.1.15,2013-01-07 10:44:00,
2013-01-07 05:49:00,31.5,27.2,30.05,WNW,302,1.0,4.0,84,0.00,,,0.00,Wunderground v.1.15,2013-01-07 10:49:00,
2013-01-07 05:54:00,31.5,27.2,30.05,West,275,0.0,3.0,84,0.00,,,0.00,Wunderground v.1.15,2013-01-07 10:54:00,
2013-01-07 05:59:00,31.5,26.9,30.05,WNW,290,0.0,4.0,83,0.00,,,0.00,Wunderground v.1.15,2013-01-07 10:59:00,
2013-01-07 06:04:00,31.5,27.2,30.06,WNW,284,0.0,3.0,84,0.00,,,0.00,Wunderground v.1.15,2013-01-07 11:04:00,
2013-01-07 06:09:00,31.5,27.2,30.05,West,266,0.0,4.0,84,0.00,,,0.00,Wunderground v.1.15,2013-01-07 11:09:00,
2013-01-07 06:14:00,31.4,27.1,30.06,SSW,207,0.0,2.0,84,0.00,,,0.00,Wunderground v.1.15,2013-01-07 11:14:00,
2013-01-07 06:19:00,31.2,26.9,30.06,WSW,256,0.0,2.0,84,0.00,,,0.00,Wunderground v.1.15,2013-01-07 11:19:00,
2013-01-07 06:25:00,31.2,26.9,30.07,WNW,285,1.0,3.0,84,0.00,,,0.00,Wunderground v.1.15,2013-01-07 11:25:00,
2013-01-07 06:30:00,31.1,26.8,30.07,WNW,286,1.0,3.0,84,0.00,,,0.00,Wunderground v.1.15,2013-01-07 11:30:00,
2013-01-07 06:35:00,31.1,27.1,30.08,WNW,286,0.0,2.0,85,0.00,,,0.00,Wunderground v.1.15,2013-01-07 11:35:00,
2013-01-07 06:40:00,30.9,26.9,30.08,WNW,286,0.0,2.0,85,0.00,,,0.00,Wunderground v.1.15,2013-01-07 11:40:00,
2013-01-07 06:45:00,30.6,26.6,30.08,WNW,286,0.0,1.0,85,0.00,,,0.00,Wunderground v.1.15,2013-01-07 11:45:00,
2013-01-07 06:50:00,30.2,26.5,30.09,WNW,286,0.0,0.0,86,0.00,,,0.00,Wunderground v.1.15,2013-01-07 11:50:00,
2013-01-07 06:55:00,29.8,26.1,30.09,WNW,286,0.0,0.0,86,0.00,,,0.00,Wunderground v.1.15,2013-01-07 11:55:00,
2013-01-07 07:00:00,29.6,26.2,30.09,WNW,286,1.0,1.0,87,0.00,,,0.00,Wunderground v.1.15,2013-01-07 12:00:00,
2013-01-07 07:05:00,29.5,26.4,30.10,WNW,290,2.0,2.0,88,0.00,,,0.00,Wunderground v.1.15,2013-01-07 12:05:00,
2013-01-07 07:10:00,29.6,26.5,30.10,WNW,302,0.0,1.0,88,0.00,,,0.00,Wunderground v.1.15,2013-01-07 12:10:00,
2013-01-07 07:15:00,29.7,26.6,30.11,NW,312,1.0,2.0,88,0.00,,,0.00,Wunderground v.1.15,2013-01-07 12:15:00,
2013-01-07 07:20:00,29.8,26.4,30.11,NW,312,0.0,1.0,87,0.00,,,0.00,Wunderground v.1.15,2013-01-07 12:20:00,
2013-01-07 07:25:00,29.9,26.5,30.11,NW,312,0.0,1.0,87,0.00,,,0.00,Wunderground v.1.15,2013-01-07 12:25:00,
2013-01-07 07:30:00,29.9,26.5,30.11,NW,312,0.0,0.0,87,0.00,,,0.00,Wunderground v.1.15,2013-01-07 12:30:00,
2013-01-07 07:35:00,30.1,26.7,30.12,West,273,1.0,3.0,87,0.00,,,0.00,Wunderground v.1.15,2013-01-07 12:35:00,
2013-01-07 07:40:00,30.2,26.8,30.13,West,273,0.0,1.0,87,0.00,,,0.00,Wunderground v.1.15,2013-01-07 12:40:00,
2013-01-07 07:45:00,30.3,26.9,30.13,NW,309,2.0,3.0,87,0.00,,,0.00,Wunderground v.1.15,2013-01-07 12:45:00,
2013-01-07 07:50:00,30.6,27.2,30.13,WNW,289,2.0,3.0,87,0.00,,,0.00,Wunderground v.1.15,2013-01-07 12:50:00,
2013-01-07 07:55:00,30.8,27.4,30.14,West,277,2.0,4.0,87,0.00,,,0.00,Wunderground v.1.15,2013-01-07 12:55:00,
2013-01-07 08:00:00,31.1,27.4,30.14,WNW,287,1.0,3.0,86,0.00,,,0.00,Wunderground v.1.15,2013-01-07 13:00:00,
2013-01-07 08:05:00,31.4,27.4,30.14,WNW,301,0.0,4.0,85,0.00,,,0.00,Wunderground v.1.15,2013-01-07 13:05:00,
2013-01-07 08:11:00,31.7,27.7,30.14,NW,304,0.0,2.0,85,0.00,,,0.00,Wunderground v.1.15,2013-01-07 13:11:00,
2013-01-07 08:16:00,32.0,28.0,30.15,WNW,302,2.0,5.0,85,0.00,,,0.00,Wunderground v.1.15,2013-01-07 13:16:00,
2013-01-07 08:21:00,32.4,28.1,30.15,WNW,293,1.0,3.0,84,0.00,,,0.00,Wunderground v.1.15,2013-01-07 13:21:00,
2013-01-07 08:26:00,33.0,28.4,30.15,WNW,299,3.0,6.0,83,0.00,,,0.00,Wunderground v.1.15,2013-01-07 13:26:00,
2013-01-07 08:31:00,33.3,28.7,30.15,WNW,301,4.0,8.0,83,0.00,,,0.00,Wunderground v.1.15,2013-01-07 13:31:00,
2013-01-07 08:36:00,33.7,28.8,30.16,NW,304,4.0,8.0,82,0.00,,,0.00,Wunderground v.1.15,2013-01-07 13:36:00,
2013-01-07 08:41:00,34.3,29.1,30.16,NW,319,6.0,7.0,81,0.00,,,0.00,Wunderground v.1.15,2013-01-07 13:41:00,
2013-01-07 08:46:00,34.8,29.3,30.17,NW,309,10.0,10.0,80,0.00,,,0.00,Wunderground v.1.15,2013-01-07 13:46:00,
2013-01-07 08:51:00,35.2,29.3,30.17,NW,307,6.0,7.0,79,0.00,,,0.00,Wunderground v.1.15,2013-01-07 13:51:00,
2013-01-07 08:56:00,35.3,29.4,30.17,NW,313,3.0,8.0,79,0.00,,,0.00,Wunderground v.1.15,2013-01-07 13:56:00,
2013-01-07 09:01:00,35.5,29.6,30.18,NW,312,8.0,9.0,79,0.00,,,0.00,Wunderground v.1.15,2013-01-07 14:01:00,
2013-01-07 09:06:00,35.7,29.5,30.18,NW,304,7.0,10.0,78,0.00,,,0.00,Wunderground v.1.15,2013-01-07 14:06:00,
2013-01-07 09:11:00,35.9,29.7,30.18,NW,325,6.0,9.0,78,0.00,,,0.00,Wunderground v.1.15,2013-01-07 14:11:00,
2013-01-07 09:16:00,36.0,29.8,30.19,NW,313,6.0,10.0,78,0.00,,,0.00,Wunderground v.1.15,2013-01-07 14:16:00,
2013-01-07 09:21:00,36.0,29.8,30.19,NW,311,4.0,6.0,78,0.00,,,0.00,Wunderground v.1.15,2013-01-07 14:21:00,
2013-01-07 09:26:00,36.0,29.8,30.20,WNW,297,6.0,9.0,78,0.00,,,0.00,Wunderground v.1.15,2013-01-07 14:26:00,
2013-01-07 09:31:00,36.2,30.0,30.20,NW,326,5.0,11.0,78,0.00,,,0.00,Wunderground v.1.15,2013-01-07 14:31:00,
2013-01-07 09:36:00,36.3,29.8,30.21,WNW,296,6.0,11.0,77,0.00,,,0.00,Wunderground v.1.15,2013-01-07 14:36:00,
2013-01-07 09:41:00,36.5,30.0,30.21,NW,309,6.0,7.0,77,0.00,,,0.00,Wunderground v.1.15,2013-01-07 14:41:00,
2013-01-07 09:46:00,36.7,30.2,30.21,NW,321,6.0,9.0,77,0.00,,,0.00,Wunderground v.1.15,2013-01-07 14:46:00,
2013-01-07 09:51:00,36.9,30.4,30.21,NNW,327,5.0,7.0,77,0.00,,,0.00,Wunderground v.1.15,2013-01-07 14:51:00,
2013-01-07 09:56:00,36.9,30.4,30.21,WNW,303,8.0,9.0,77,0.00,,,0.00,Wunderground v.1.15,2013-01-07 14:56:00,
2013-01-07 10:01:00,37.0,30.5,30.21,NW,308,5.0,10.0,77,0.00,,,0.00,Wunderground v.1.15,2013-01-07 15:01:00,
2013-01-07 10:06:00,37.1,30.2,30.22,WNW,295,5.0,10.0,76,0.00,,,0.00,Wunderground v.1.15,2013-01-07 15:06:00,
2013-01-07 10:11:00,37.3,30.4,30.22,NW,325,3.0,9.0,76,0.00,,,0.00,Wunderground v.1.15,2013-01-07 15:11:00,
2013-01-07 10:17:00,37.5,30.6,30.22,NNW,327,9.0,10.0,76,0.00,,,0.00,Wunderground v.1.15,2013-01-07 15:17:00,
2013-01-07 10:22:00,37.3,30.4,30.22,NW,321,10.0,13.0,76,0.00,,,0.00,Wunderground v.1.15,2013-01-07 15:22:00,
2013-01-07 10:27:00,37.3,30.4,30.22,NNW,344,8.0,13.0,76,0.00,,,0.00,Wunderground v.1.15,2013-01-07 15:27:00,
2013-01-07 10:32:00,37.1,30.2,30.22,NNW,333,10.0,14.0,76,0.00,,,0.00,Wunderground v.1.15,2013-01-07 15:32:00,
2013-01-07 10:37:00,37.3,30.1,30.22,NW,316,9.0,14.0,75,0.00,,,0.00,Wunderground v.1.15,2013-01-07 15:37:00,
2013-01-07 10:42:00,37.5,30.3,30.22,NNW,341,8.0,12.0,75,0.00,,,0.00,Wunderground v.1.15,2013-01-07 15:42:00,
2013-01-07 10:47:00,37.4,30.2,30.23,NNW,341,13.0,13.0,75,0.00,,,0.00,Wunderground v.1.15,2013-01-07 15:47:00,
2013-01-07 10:52:00,37.0,30.1,30.22,NNW,331,7.0,16.0,76,0.00,,,0.00,Wunderground v.1.15,2013-01-07 15:52:00,
2013-01-07 10:57:00,37.0,30.1,30.22,NW,319,9.0,16.0,76,0.00,,,0.00,Wunderground v.1.15,2013-01-07 15:57:00,
2013-01-07 11:02:00,37.3,29.1,30.23,NNW,337,12.0,14.0,72,0.00,,,0.00,Wunderground v.1.15,2013-01-07 16:02:00,
2013-01-07 11:07:00,37.5,29.3,30.23,NNW,336,10.0,14.0,72,0.00,,,0.00,Wunderground v.1.15,2013-01-07 16:07:00,
2013-01-07 11:12:00,37.5,28.9,30.23,NNW,331,12.0,14.0,71,0.00,,,0.00,Wunderground v.1.15,2013-01-07 16:12:00,
2013-01-07 11:17:00,37.7,29.1,30.23,NNW,338,9.0,16.0,71,0.00,,,0.00,Wunderground v.1.15,2013-01-07 16:17:00,
2013-01-07 11:22:00,37.6,28.3,30.24,NNW,338,12.0,14.0,69,0.00,,,0.00,Wunderground v.1.15,2013-01-07 16:22:00,
2013-01-07 11:27:00,37.5,28.2,30.23,NNW,336,10.0,14.0,69,0.00,,,0.00,Wunderground v.1.15,2013-01-07 16:27:00,
2013-01-07 11:32:00,37.5,28.2,30.23,North,351,9.0,13.0,69,0.00,,,0.00,Wunderground v.1.15,2013-01-07 16:32:00,
2013-01-07 11:37:00,37.4,27.8,30.23,NNW,340,7.0,13.0,68,0.00,,,0.00,Wunderground v.1.15,2013-01-07 16:37:00,
2013-01-07 11:42:00,37.3,27.3,30.23,NNW,331,12.0,15.0,67,0.00,,,0.00,Wunderground v.1.15,2013-01-07 16:42:00,
2013-01-07 11:47:00,37.3,27.3,30.24,NNW,346,7.0,15.0,67,0.00,,,0.00,Wunderground v.1.15,2013-01-07 16:47:00,
2013-01-07 11:52:00,37.3,27.7,30.24,NNW,336,7.0,10.0,68,0.00,,,0.00,Wunderground v.1.15,2013-01-07 16:52:00,
2013-01-07 11:57:00,37.1,27.5,30.24,NNW,347,7.0,11.0,68,0.00,,,0.00,Wunderground v.1.15,2013-01-07 16:57:00,
2013-01-07 12:02:00,36.9,27.3,30.24,North,355,7.0,11.0,68,0.00,,,0.00,Wunderground v.1.15,2013-01-07 17:02:00,
2013-01-07 12:07:00,37.0,27.1,30.24,NNW,343,8.0,11.0,67,0.00,,,0.00,Wunderground v.1.15,2013-01-07 17:07:00,
2013-01-07 12:12:00,37.0,26.7,30.25,NNW,337,10.0,14.0,66,0.00,,,0.00,Wunderground v.1.15,2013-01-07 17:12:00,
2013-01-07 12:17:00,36.9,26.6,30.25,NNW,336,6.0,14.0,66,0.00,,,0.00,Wunderground v.1.15,2013-01-07 17:17:00,
2013-01-07 12:23:00,37.0,27.1,30.25,NNE,20,6.0,10.0,67,0.00,,,0.00,Wunderground v.1.15,2013-01-07 17:23:00,
2013-01-07 12:28:00,37.0,27.1,30.25,North,355,7.0,11.0,67,0.00,,,0.00,Wunderground v.1.15,2013-01-07 17:28:00,
2013-01-07 12:33:00,36.7,26.8,30.25,NNW,342,5.0,9.0,67,0.00,,,0.00,Wunderground v.1.15,2013-01-07 17:33:00,
2013-01-07 12:38:00,36.9,27.0,30.25,North,360,8.0,11.0,67,0.00,,,0.00,Wunderground v.1.15,2013-01-07 17:38:00,
2013-01-07 12:43:00,37.0,27.1,30.26,NNE,26,5.0,7.0,67,0.00,,,0.00,Wunderground v.1.15,2013-01-07 17:43:00,
2013-01-07 12:48:00,36.9,27.0,30.26,North,5,9.0,12.0,67,0.00,,,0.00,Wunderground v.1.15,2013-01-07 17:48:00,
2013-01-07 12:53:00,36.9,27.0,30.27,North,5,7.0,7.0,67,0.00,,,0.00,Wunderground v.1.15,2013-01-07 17:53:00,
2013-01-07 12:58:00,36.5,27.3,30.27,North,355,7.0,12.0,69,0.00,,,0.00,Wunderground v.1.15,2013-01-07 17:58:00,
2013-01-07 13:03:00,36.4,27.9,30.27,North,5,3.0,7.0,71,0.00,,,0.00,Wunderground v.1.15,2013-01-07 18:03:00,
2013-01-07 13:08:00,36.4,27.5,30.27,North,355,2.0,7.0,70,0.00,,,0.00,Wunderground v.1.15,2013-01-07 18:08:00,
2013-01-07 13:13:00,36.7,27.1,30.27,NNW,346,10.0,10.0,68,0.00,,,0.00,Wunderground v.1.15,2013-01-07 18:13:00,
2013-01-07 13:18:00,36.8,28.3,30.27,North,360,4.0,11.0,71,0.00,,,0.00,Wunderground v.1.15,2013-01-07 18:18:00,
2013-01-07 13:23:00,36.8,26.9,30.27,North,5,7.0,8.0,67,0.00,,,0.00,Wunderground v.1.15,2013-01-07 18:23:00,
2013-01-07 13:28:00,36.7,28.5,30.28,North,360,8.0,9.0,72,0.00,,,0.00,Wunderground v.1.15,2013-01-07 18:28:00,
2013-01-07 13:33:00,36.7,27.1,30.28,NNE,15,5.0,8.0,68,0.00,,,0.00,Wunderground v.1.15,2013-01-07 18:33:00,
2013-01-07 13:38:00,36.6,26.7,30.28,NE,47,6.0,8.0,67,0.00,,,0.00,Wunderground v.1.15,2013-01-07 18:38:00,
2013-01-07 13:43:00,36.8,27.2,30.28,NNE,33,5.0,6.0,68,0.00,,,0.00,Wunderground v.1.15,2013-01-07 18:43:00,
2013-01-07 13:48:00,36.8,25.8,30.29,North,360,4.0,7.0,64,0.00,,,0.00,Wunderground v.1.15,2013-01-07 18:48:00,
2013-01-07 13:53:00,36.7,27.1,30.29,NNW,341,3.0,4.0,68,0.00,,,0.00,Wunderground v.1.15,2013-01-07 18:53:00,
2013-01-07 13:58:00,36.6,25.6,30.29,North,350,7.0,8.0,64,0.00,,,0.00,Wunderground v.1.15,2013-01-07 18:58:00,
2013-01-07 14:03:00,36.6,26.3,30.29,NNW,348,5.0,9.0,66,0.00,,,0.00,Wunderground v.1.15,2013-01-07 19:03:00,
2013-01-07 14:08:00,36.4,26.5,30.29,North,350,5.0,9.0,67,0.00,,,0.00,Wunderground v.1.15,2013-01-07 19:08:00,
2013-01-07 14:13:00,36.3,27.1,30.30,North,355,6.0,7.0,69,0.00,,,0.00,Wunderground v.1.15,2013-01-07 19:13:00,
2013-01-07 14:18:00,36.4,27.2,30.30,NNW,346,4.0,7.0,69,0.00,,,0.00,Wunderground v.1.15,2013-01-07 19:18:00,
2013-01-07 14:23:00,36.4,27.9,30.31,North,5,4.0,8.0,71,0.00,,,0.00,Wunderground v.1.15,2013-01-07 19:23:00,
2013-01-07 14:28:00,36.4,27.5,30.31,NNE,20,4.0,8.0,70,0.00,,,0.00,Wunderground v.1.15,2013-01-07 19:28:00,
2013-01-07 14:33:00,36.4,28.6,30.31,NE,42,4.0,4.0,73,0.00,,,0.00,Wunderground v.1.15,2013-01-07 19:33:00,
2013-01-07 14:38:00,35.9,28.4,30.31,ENE,74,4.0,7.0,74,0.00,,,0.00,Wunderground v.1.15,2013-01-07 19:38:00,
2013-01-07 14:43:00,35.7,28.2,30.31,East,82,7.0,7.0,74,0.00,,,0.00,Wunderground v.1.15,2013-01-07 19:43:00,
2013-01-07 14:48:00,35.4,28.3,30.32,East,86,3.0,7.0,75,0.00,,,0.00,Wunderground v.1.15,2013-01-07 19:48:00,
2013-01-07 14:53:00,35.2,28.4,30.32,East,79,2.0,5.0,76,0.00,,,0.00,Wunderground v.1.15,2013-01-07 19:53:00,
2013-01-07 14:59:00,35.0,28.2,30.32,East,86,3.0,5.0,76,0.00,,,0.00,Wunderground v.1.15,2013-01-07 19:59:00,
2013-01-07 15:04:00,35.1,27.3,30.32,ENE,59,2.0,6.0,73,0.00,,,0.00,Wunderground v.1.15,2013-01-07 20:04:00,
2013-01-07 15:09:00,35.5,28.0,30.33,ENE,60,1.0,6.0,74,0.00,,,0.00,Wunderground v.1.15,2013-01-07 20:09:00,
2013-01-07 15:14:00,35.6,27.8,30.33,ENE,60,3.0,3.0,73,0.00,,,0.00,Wunderground v.1.15,2013-01-07 20:14:00,
2013-01-07 15:19:00,35.7,28.2,30.32,East,84,2.0,5.0,74,0.00,,,0.00,Wunderground v.1.15,2013-01-07 20:19:00,
2013-01-07 15:24:00,35.4,28.6,30.33,East,84,6.0,7.0,76,0.00,,,0.00,Wunderground v.1.15,2013-01-07 20:24:00,
2013-01-07 15:29:00,35.0,28.8,30.33,East,100,7.0,8.0,78,0.00,,,0.00,Wunderground v.1.15,2013-01-07 20:29:00,
2013-01-07 15:34:00,34.8,29.0,30.34,East,92,7.0,9.0,79,0.00,,,0.00,Wunderground v.1.15,2013-01-07 20:34:00,
2013-01-07 15:39:00,34.7,28.9,30.34,ESE,103,4.0,9.0,79,0.00,,,0.00,Wunderground v.1.15,2013-01-07 20:39:00,
2013-01-07 15:44:00,34.8,29.0,30.34,East,94,6.0,7.0,79,0.00,,,0.00,Wunderground v.1.15,2013-01-07 20:44:00,
2013-01-07 15:49:00,34.4,28.9,30.34,East,92,5.0,7.0,80,0.00,,,0.00,Wunderground v.1.15,2013-01-07 20:49:00,
2013-01-07 15:54:00,34.2,28.7,30.34,East,89,3.0,6.0,80,0.00,,,0.00,Wunderground v.1.15,2013-01-07 20:54:00,
2013-01-07 15:59:00,33.8,28.6,30.35,East,95,5.0,6.0,81,0.00,,,0.00,Wunderground v.1.15,2013-01-07 20:59:00,
2013-01-07 16:04:00,33.9,28.7,30.35,East,94,6.0,7.0,81,0.00,,,0.00,Wunderground v.1.15,2013-01-07 21:04:00,
2013-01-07 16:09:00,33.9,28.7,30.35,East,88,5.0,7.0,81,0.00,,,0.00,Wunderground v.1.15,2013-01-07 21:09:00,
2013-01-07 16:14:00,33.8,28.6,30.35,East,94,2.0,6.0,81,0.00,,,0.00,Wunderground v.1.15,2013-01-07 21:14:00,
2013-01-07 16:19:00,33.7,28.5,30.35,East,89,7.0,7.0,81,0.00,,,0.00,Wunderground v.1.15,2013-01-07 21:19:00,
2013-01-07 16:24:00,33.6,28.4,30.35,East,92,7.0,7.0,81,0.00,,,0.00,Wunderground v.1.15,2013-01-07 21:24:00,
2013-01-07 16:29:00,33.5,28.3,30.34,East,94,2.0,7.0,81,0.00,,,0.00,Wunderground v.1.15,2013-01-07 21:29:00,
2013-01-07 16:35:00,33.5,28.3,30.35,East,95,0.0,5.0,81,0.00,,,0.00,Wunderground v.1.15,2013-01-07 21:35:00,
2013-01-07 16:40:00,33.2,28.0,30.35,East,95,0.0,5.0,81,0.00,,,0.00,Wunderground v.1.15,2013-01-07 21:40:00,
2013-01-07 16:45:00,32.8,27.6,30.35,East,95,3.0,5.0,81,0.00,,,0.00,Wunderground v.1.15,2013-01-07 21:45:00,
2013-01-07 16:50:00,32.7,27.8,30.35,East,92,2.0,5.0,82,0.00,,,0.00,Wunderground v.1.15,2013-01-07 21:50:00,
2013-01-07 16:55:00,32.7,27.8,30.36,East,92,0.0,2.0,82,0.00,,,0.00,Wunderground v.1.15,2013-01-07 21:55:00,
2013-01-07 17:00:00,32.4,27.2,30.36,East,92,0.0,0.0,81,0.00,,,0.00,Wunderground v.1.15,2013-01-07 22:00:00,
2013-01-07 17:05:00,32.1,27.2,30.37,East,92,0.0,0.0,82,0.00,,,0.00,Wunderground v.1.15,2013-01-07 22:05:00,
2013-01-07 17:10:00,31.7,26.8,30.37,East,92,0.0,0.0,82,0.00,,,0.00,Wunderground v.1.15,2013-01-07 22:10:00,
2013-01-07 17:15:00,31.3,26.7,30.37,East,92,0.0,0.0,83,0.00,,,0.00,Wunderground v.1.15,2013-01-07 22:15:00,
2013-01-07 17:20:00,31.0,26.7,30.37,East,92,1.0,1.0,84,0.00,,,0.00,Wunderground v.1.15,2013-01-07 22:20:00,
2013-01-07 17:25:00,30.8,26.5,30.37,East,92,0.0,1.0,84,0.00,,,0.00,Wunderground v.1.15,2013-01-07 22:25:00,
2013-01-07 17:30:00,30.6,26.3,30.38,East,92,0.0,0.0,84,0.00,,,0.00,Wunderground v.1.15,2013-01-07 22:30:00,
2013-01-07 17:35:00,30.3,26.3,30.38,East,92,0.0,0.0,85,0.00,,,0.00,Wunderground v.1.15,2013-01-07 22:35:00,
2013-01-07 17:40:00,30.2,26.2,30.38,East,92,0.0,0.0,85,0.00,,,0.00,Wunderground v.1.15,2013-01-07 22:40:00,
2013-01-07 17:45:00,30.1,26.1,30.38,East,92,0.0,1.0,85,0.00,,,0.00,Wunderground v.1.15,2013-01-07 22:45:00,
2013-01-07 17:50:00,29.9,25.9,30.39,East,92,0.0,0.0,85,0.00,,,0.00,Wunderground v.1.15,2013-01-07 22:50:00,
2013-01-07 17:55:00,29.8,25.8,30.39,East,92,0.0,1.0,85,0.00,,,0.00,Wunderground v.1.15,2013-01-07 22:55:00,
2013-01-07 18:00:00,29.6,25.6,30.39,East,92,1.0,1.0,85,0.00,,,0.00,Wunderground v.1.15,2013-01-07 23:00:00,
2013-01-07 18:05:00,29.5,25.8,30.39,East,92,0.0,1.0,86,0.00,,,0.00,Wunderground v.1.15,2013-01-07 23:05:00,
2013-01-07 18:10:00,29.3,25.6,30.39,East,92,2.0,2.0,86,0.00,,,0.00,Wunderground v.1.15,2013-01-07 23:10:00,
2013-01-07 18:15:00,29.0,25.3,30.39,East,92,1.0,2.0,86,0.00,,,0.00,Wunderground v.1.15,2013-01-07 23:15:00,
2013-01-07 18:20:00,28.8,25.1,30.39,East,92,0.0,0.0,86,0.00,,,0.00,Wunderground v.1.15,2013-01-07 23:20:00,
2013-01-07 18:26:00,28.6,24.9,30.39,East,92,1.0,1.0,86,0.00,,,0.00,Wunderground v.1.15,2013-01-07 23:26:00,
2013-01-07 18:31:00,28.4,25.0,30.39,ESE,107,0.0,0.0,87,0.00,,,0.00,Wunderground v.1.15,2013-01-07 23:31:00,
2013-01-07 18:36:00,28.1,24.7,30.39,ESE,107,0.0,1.0,87,0.00,,,0.00,Wunderground v.1.15,2013-01-07 23:36:00,
2013-01-07 18:41:00,27.9,24.8,30.39,ESE,107,1.0,1.0,88,0.00,,,0.00,Wunderground v.1.15,2013-01-07 23:41:00,
2013-01-07 18:46:00,27.8,24.7,30.39,ESE,107,0.0,1.0,88,0.00,,,0.00,Wunderground v.1.15,2013-01-07 23:46:00,
2013-01-07 18:51:00,27.7,24.6,30.39,ESE,107,1.0,2.0,88,0.00,,,0.00,Wunderground v.1.15,2013-01-07 23:51:00,
2013-01-07 18:56:00,27.6,24.5,30.40,ESE,107,2.0,2.0,88,0.00,,,0.00,Wunderground v.1.15,2013-01-07 23:56:00,
2013-01-07 19:01:00,27.7,24.9,30.39,ESE,107,0.0,2.0,89,0.00,,,0.00,Wunderground v.1.15,2013-01-08 00:01:00,
2013-01-07 19:06:00,27.8,25.0,30.40,ESE,107,0.0,2.0,89,0.00,,,0.00,Wunderground v.1.15,2013-01-08 00:06:00,
2013-01-07 19:11:00,27.7,24.6,30.40,ESE,107,0.0,0.0,88,0.00,,,0.00,Wunderground v.1.15,2013-01-08 00:11:00,
2013-01-07 19:16:00,27.3,24.2,30.40,ESE,107,0.0,2.0,88,0.00,,,0.00,Wunderground v.1.15,2013-01-08 00:16:00,
2013-01-07 19:21:00,27.2,24.4,30.40,ESE,107,0.0,0.0,89,0.00,,,0.00,Wunderground v.1.15,2013-01-08 00:21:00,
2013-01-07 19:26:00,27.0,24.2,30.39,ESE,107,0.0,0.0,89,0.00,,,0.00,Wunderground v.1.15,2013-01-08 00:26:00,
2013-01-07 19:31:00,26.8,24.0,30.40,ESE,107,0.0,0.0,89,0.00,,,0.00,Wunderground v.1.15,2013-01-08 00:31:00,
2013-01-07 19:36:00,26.6,24.1,30.40,ESE,107,0.0,0.0,90,0.00,,,0.00,Wunderground v.1.15,2013-01-08 00:36:00,
2013-01-07 19:41:00,26.4,23.9,30.40,ESE,107,0.0,0.0,90,0.00,,,0.00,Wunderground v.1.15,2013-01-08 00:41:00,
2013-01-07 19:46:00,26.2,23.7,30.40,ESE,107,0.0,0.0,90,0.00,,,0.00,Wunderground v.1.15,2013-01-08 00:46:00,
2013-01-07 19:51:00,26.1,23.6,30.40,ESE,107,0.0,0.0,90,0.00,,,0.00,Wunderground v.1.15,2013-01-08 00:51:00,
2013-01-07 19:56:00,25.9,23.4,30.40,ESE,107,0.0,0.0,90,0.00,,,0.00,Wunderground v.1.15,2013-01-08 00:56:00,
2013-01-07 20:02:00,25.7,23.2,30.40,ESE,107,0.0,0.0,90,0.00,,,0.00,Wunderground v.1.15,2013-01-08 01:02:00,
2013-01-07 20:07:00,25.6,23.3,30.40,ESE,107,0.0,0.0,91,0.00,,,0.00,Wunderground v.1.15,2013-01-08 01:07:00,
2013-01-07 20:12:00,25.5,23.2,30.40,ESE,107,0.0,0.0,91,0.00,,,0.00,Wunderground v.1.15,2013-01-08 01:12:00,
2013-01-07 20:17:00,25.8,23.8,30.40,ESE,107,0.0,1.0,92,0.00,,,0.00,Wunderground v.1.15,2013-01-08 01:17:00,
2013-01-07 20:22:00,25.9,23.9,30.39,ESE,107,0.0,1.0,92,0.00,,,0.00,Wunderground v.1.15,2013-01-08 01:22:00,
2013-01-07 20:27:00,25.9,23.9,30.39,ESE,107,0.0,1.0,92,0.00,,,0.00,Wunderground v.1.15,2013-01-08 01:27:00,
2013-01-07 20:32:00,25.8,23.8,30.39,ESE,107,0.0,0.0,92,0.00,,,0.00,Wunderground v.1.15,2013-01-08 01:32:00,
2013-01-07 20:37:00,25.6,23.3,30.39,ESE,107,0.0,0.0,91,0.00,,,0.00,Wunderground v.1.15,2013-01-08 01:37:00,
2013-01-07 20:42:00,25.4,23.1,30.39,ESE,107,0.0,0.0,91,0.00,,,0.00,Wunderground v.1.15,2013-01-08 01:42:00,
2013-01-07 20:47:00,25.3,23.3,30.39,ESE,107,0.0,0.0,92,0.00,,,0.00,Wunderground v.1.15,2013-01-08 01:47:00,
2013-01-07 20:52:00,25.4,23.4,30.39,ESE,107,0.0,0.0,92,0.00,,,0.00,Wunderground v.1.15,2013-01-08 01:52:00,
2013-01-07 20:57:00,25.4,23.4,30.39,ESE,107,0.0,0.0,92,0.00,,,0.00,Wunderground v.1.15,2013-01-08 01:57:00,
2013-01-07 21:02:00,25.2,23.2,30.39,ESE,107,0.0,0.0,92,0.00,,,0.00,Wunderground v.1.15,2013-01-08 02:02:00,
2013-01-07 21:07:00,25.0,22.7,30.39,ESE,107,0.0,0.0,91,0.00,,,0.00,Wunderground v.1.15,2013-01-08 02:07:00,
2013-01-07 21:12:00,24.7,22.4,30.39,ESE,107,0.0,0.0,91,0.00,,,0.00,Wunderground v.1.15,2013-01-08 02:12:00,
2013-01-07 21:17:00,24.5,22.2,30.39,ESE,107,0.0,0.0,91,0.00,,,0.00,Wunderground v.1.15,2013-01-08 02:17:00,
2013-01-07 21:22:00,24.3,22.3,30.39,ESE,107,0.0,0.0,92,0.00,,,0.00,Wunderground v.1.15,2013-01-08 02:22:00,
2013-01-07 21:27:00,24.2,22.2,30.39,ESE,107,0.0,0.0,92,0.00,,,0.00,Wunderground v.1.15,2013-01-08 02:27:00,
2013-01-07 21:32:00,24.2,22.5,30.39,ESE,107,0.0,0.0,93,0.00,,,0.00,Wunderground v.1.15,2013-01-08 02:32:00,
2013-01-07 21:37:00,24.4,22.7,30.39,ESE,107,0.0,0.0,93,0.00,,,0.00,Wunderground v.1.15,2013-01-08 02:37:00,
2013-01-07 21:42:00,24.4,22.7,30.39,ESE,107,0.0,0.0,93,0.00,,,0.00,Wunderground v.1.15,2013-01-08 02:42:00,
2013-01-07 21:48:00,24.5,22.8,30.39,ESE,107,0.0,0.0,93,0.00,,,0.00,Wunderground v.1.15,2013-01-08 02:48:00,
2013-01-07 21:53:00,24.5,22.8,30.39,ESE,107,0.0,0.0,93,0.00,,,0.00,Wunderground v.1.15,2013-01-08 02:53:00,
2013-01-07 21:58:00,24.5,22.8,30.39,ESE,107,0.0,0.0,93,0.00,,,0.00,Wunderground v.1.15,2013-01-08 02:58:00,
2013-01-07 22:03:00,24.4,22.7,30.39,ESE,107,0.0,0.0,93,0.00,,,0.00,Wunderground v.1.15,2013-01-08 03:03:00,
2013-01-07 22:08:00,24.5,22.8,30.40,ESE,107,0.0,0.0,93,0.00,,,0.00,Wunderground v.1.15,2013-01-08 03:08:00,
2013-01-07 22:13:00,24.6,22.9,30.39,ESE,107,0.0,0.0,93,0.00,,,0.00,Wunderground v.1.15,2013-01-08 03:13:00,
2013-01-07 22:18:00,24.5,22.8,30.39,ESE,107,0.0,0.0,93,0.00,,,0.00,Wunderground v.1.15,2013-01-08 03:18:00,
2013-01-07 22:23:00,24.5,22.8,30.39,ESE,107,0.0,0.0,93,0.00,,,0.00,Wunderground v.1.15,2013-01-08 03:23:00,
2013-01-07 22:28:00,24.4,22.7,30.39,ESE,107,0.0,1.0,93,0.00,,,0.00,Wunderground v.1.15,2013-01-08 03:28:00,
2013-01-07 22:33:00,24.4,22.7,30.39,ESE,107,0.0,1.0,93,0.00,,,0.00,Wunderground v.1.15,2013-01-08 03:33:00,
2013-01-07 22:38:00,24.3,22.6,30.39,ESE,107,0.0,1.0,93,0.00,,,0.00,Wunderground v.1.15,2013-01-08 03:38:00,
2013-01-07 22:43:00,24.2,22.5,30.39,ESE,107,0.0,0.0,93,0.00,,,0.00,Wunderground v.1.15,2013-01-08 03:43:00,
2013-01-07 22:48:00,24.0,22.3,30.39,ESE,107,0.0,0.0,93,0.00,,,0.00,Wunderground v.1.15,2013-01-08 03:48:00,
2013-01-07 22:53:00,23.9,22.2,30.38,ESE,107,0.0,0.0,93,0.00,,,0.00,Wunderground v.1.15,2013-01-08 03:53:00,
2013-01-07 22:58:00,24.0,22.5,30.38,ESE,107,0.0,1.0,94,0.00,,,0.00,Wunderground v.1.15,2013-01-08 03:58:00,
2013-01-07 23:03:00,23.9,22.2,30.38,ESE,107,0.0,0.0,93,0.00,,,0.00,Wunderground v.1.15,2013-01-08 04:03:00,
2013-01-07 23:08:00,23.9,22.4,30.38,ESE,107,0.0,0.0,94,0.00,,,0.00,Wunderground v.1.15,2013-01-08 04:08:00,
2013-01-07 23:13:00,24.0,22.5,30.38,ESE,107,0.0,0.0,94,0.00,,,0.00,Wunderground v.1.15,2013-01-08 04:13:00,
2013-01-07 23:18:00,24.0,22.5,30.38,ESE,107,0.0,0.0,94,0.00,,,0.00,Wunderground v.1.15,2013-01-08 04:18:00,
2013-01-07 23:23:00,24.0,22.5,30.38,ESE,107,0.0,0.0,94,0.00,,,0.00,Wunderground v.1.15,2013-01-08 04:23:00,
2013-01-07 23:29:00,24.0,22.5,30.38,ESE,107,0.0,0.0,94,0.00,,,0.00,Wunderground v.1.15,2013-01-08 04:29:00,
2013-01-07 23:34:00,23.8,22.1,30.38,ESE,107,0.0,0.0,93,0.00,,,0.00,Wunderground v.1.15,2013-01-08 04:34:00,
2013-01-07 23:39:00,23.6,21.9,30.38,ESE,107,0.0,0.0,93,0.00,,,0.00,Wunderground v.1.15,2013-01-08 04:39:00,
2013-01-07 23:44:00,23.5,21.8,30.37,ESE,107,0.0,0.0,93,0.00,,,0.00,Wunderground v.1.15,2013-01-08 04:44:00,
2013-01-07 23:49:00,23.5,22.0,30.37,ESE,107,0.0,1.0,94,0.00,,,0.00,Wunderground v.1.15,2013-01-08 04:49:00,
2013-01-07 23:54:00,23.4,21.7,30.37,ESE,107,0.0,0.0,93,0.00,,,0.00,Wunderground v.1.15,2013-01-08 04:54:00,
2013-01-07 23:59:00,23.4,21.9,30.37,ESE,107,0.0,0.0,94,0.00,,,0.00,Wunderground v.1.15,2013-01-08 04:59:00,